Location: Hartha
(51.1030°N, 12.9600°E)
Time: 14:21:29
(UTC+02:00)

Daily predictions for brighter satellites

Satellite Brightness Start Highest point End
(mag) Time Altitude Azimuth Time Altitude Azimuth Time Altitude Azimuth
Cosmos 1726 Rocket 3.5 18:29:18 10° S 18:33:39 70° E 18:37:59 10° NNE
Unknown 3.4 18:30:48 10° WNW 18:34:32 71° N 18:38:15 10° E
Unknown 3.8 18:31:01 10° W 18:35:10 70° N 18:39:18 10° ENE
Unknown 3.8 18:32:39 10° W 18:36:48 69° N 18:40:57 10° ENE
Unknown 3.8 18:34:20 10° W 18:38:28 69° N 18:42:38 10° ENE
Cosmos 1726 2.3 18:36:21 10° S 18:39:52 47° E 18:43:24 10° NNE
Unknown 3.8 18:35:58 10° W 18:40:06 69° N 18:44:15 10° ENE
SMAP 3.6 18:38:06 10° S 18:42:44 67° WSW 18:47:24 10° NNW
Unknown 3.8 18:42:40 10° W 18:46:49 68° N 18:50:48 11° ENE
Cosmos 1461 2.9 18:43:04 10° NW 18:47:10 83° SW 18:51:22 10° SE
Meteor 1-16 Rocket 4.1 18:42:10 10° S 18:47:37 73° E 18:52:59 10° NNE
Unknown 3.5 18:44:32 10° WNW 18:48:01 66° SSW 18:51:31 10° ESE
Unknown 3.8 18:44:21 10° W 18:48:30 67° N 18:52:25 11° ENE
Cosmos 2278 Rocket 2.5 18:43:35 10° S 18:48:56 45° ESE 18:54:20 10° NE
Cosmos 1908 3.6 18:46:05 10° SSE 18:49:46 42° E 18:53:28 10° NNE
Unknown 3.8 18:46:00 10° W 18:50:08 67° N 18:54:00 12° ENE
CZ-4 R/B 1.7 18:47:14 10° SE 18:51:17 49° ENE 18:55:23 10° N
Gbstr 26 Del rocket 4.4 18:46:09 10° WNW 18:51:46 61° SSW 18:58:41 10° SE
Unknown 3.8 18:47:39 10° W 18:51:48 67° N 18:55:34 12° E
Abrixas rocket 3.1 18:49:58 10° SW 18:52:46 33° SSE 18:55:13 12° E
Unknown 3.8 18:49:18 10° W 18:53:27 67° N 18:57:09 13° E
ATLAS CENTAUR R/B 3.6 18:50:38 10° NNW 18:53:38 17° N 18:56:32 10° NE
Meteor 2-10 3.9 18:50:40 10° S 18:55:39 67° E 19:00:41 10° NNE
NOSS 3-2 (A) 4.2 18:51:31 10° S 18:56:30 30° ESE 19:02:01 10° ENE
Cosmos 1844 4.2 18:51:04 10° SW 18:56:46 64° NW 19:02:33 10° NNE
Unknown 3.8 18:52:39 10° W 18:56:48 66° N 19:00:22 14° E
Starlink (trailer) 3.8 18:54:18 10° W 18:58:26 66° N 19:01:56 14° E
CSL-04 Rocket 3.8 18:53:43 10° SE 18:59:05 55° ENE 19:04:24 10° N
Meteor 1-11 4.3 18:53:43 10° NNW 18:59:32 84° ENE 19:05:21 10° SSE
EO 1 Delta rocket 4.2 18:55:32 10° SE 19:00:01 48° ENE 19:05:09 10° N
Unknown 3.8 18:56:01 10° W 19:00:09 66° N 19:03:34 15° E
FengYun 1-2 T 4.2 18:56:04 10° SSE 19:01:40 71° ENE 19:07:14 10° NNW
SJ 16-02 2.7 18:58:24 10° N 19:01:43 20° NE 19:04:00 14° E
Unknown 3.8 18:57:40 10° W 19:01:49 66° N 19:05:10 15° E
Cosmos 2058 Rocket 3.0 18:57:51 10° S 19:02:13 89° ESE 19:06:37 10° N
Cosmos 2084 Rocket 3.5 18:58:42 10° NW 19:03:10 74° NE 19:07:33 10° SE
NOSS 3-3 (A) 4.5 18:55:53 10° NW 19:03:14 80° NE 19:11:24 10° SE
NOSS 3-3 (C) 4.5 18:55:59 10° NW 19:03:19 80° NE 19:11:30 10° SE
Cosmos 2263 Rocket 4.4 19:00:10 10° WNW 19:04:08 19° NNW 19:08:06 10° NNE
Unknown 3.8 19:02:42 10° W 19:06:50 66° N 19:09:59 17° E
Ariane Rocket 3.7 19:02:20 10° SE 19:06:53 33° ENE 19:11:26 10° N
Cosmos 1953 4.1 19:03:46 10° SW 19:07:33 36° WNW 19:11:21 10° N
YAOGAN 6 2.5 19:04:17 10° SSE 19:07:54 65° ENE 19:11:29 10° N
Unknown 3.8 19:04:19 10° W 19:08:28 66° N 19:11:32 17° E
Unknown 3.8 19:06:02 10° W 19:10:10 66° N 19:13:11 18° E
Unknown 3.8 19:07:37 10° W 19:11:47 66° N 19:14:45 18° E
Unknown 3.4 19:08:48 10° WNW 19:12:39 77° NNE 19:15:18 19° E
COSMO-SKYMED 1 2.6 19:08:35 10° NNE 19:12:54 58° E 19:17:10 10° S
Unknown 3.8 19:09:20 10° W 19:13:28 66° N 19:16:20 19° E
Unknown 3.8 19:11:06 10° W 19:15:14 66° N 19:18:02 20° E
Cosmos 1833 Rocket 3.0 19:11:11 10° NNW 19:16:48 72° WSW 19:22:23 10° SSE
Cosmos 1892 4.2 19:14:29 10° NNE 19:17:12 18° ENE 19:17:12 18° ENE
Cosmos 990 Rocket 4.5 19:12:57 10° NNW 19:17:52 39° NE 19:22:04 13° ESE
Unknown 3.7 19:14:26 10° W 19:18:34 66° N 19:21:14 21° E
Unknown 3.8 19:14:27 10° W 19:18:34 66° N 19:21:14 21° E
Cosmos 1937 Rocket 4.2 19:14:14 10° N 19:18:53 33° NE 19:22:02 18° ESE
NOAA 11 4.4 19:13:45 10° SE 19:18:58 49° ENE 19:24:11 10° N
Unknown 3.8 19:15:59 10° W 19:20:07 66° N 19:22:43 22° E
Cosmos 1459 Rocket 4.3 19:15:30 10° N 19:21:26 44° ENE 19:27:25 10° SE
Cosmos 1339 Rocket 4.4 19:15:43 10° S 19:21:47 75° E 19:27:58 10° NNE
ASTEX 1 3.5 19:17:08 10° N 19:22:08 84° W 19:27:07 10° S
NOSS 3-2 (C) 4.2 19:17:55 10° S 19:22:55 30° ESE 19:27:00 16° ENE
Unknown 3.7 19:19:15 10° W 19:23:23 66° N 19:25:50 23° E
BREEZE-M DEB (TANK) 3.9 19:16:19 10° SW 19:26:00 35° SSE 19:28:14 21° ESE
Unknown 3.7 19:22:39 10° W 19:26:48 67° N 19:29:07 25° E
Okean-O 4.3 19:24:14 10° SSW 19:28:20 36° W 19:32:28 10° NNW
Unknown 3.7 19:24:20 10° W 19:28:28 67° N 19:30:43 26° E
Cosmos 2061 Rocket 4.5 19:23:00 10° N 19:28:47 38° ENE 19:34:29 10° SE
Unknown 3.7 19:26:00 10° W 19:30:08 67° N 19:32:19 27° E
Lacrosse 5 2.7 19:26:39 10° WNW 19:31:32 50° SW 19:36:24 10° SSE
Unknown 3.7 19:27:41 10° W 19:31:50 67° N 19:33:56 27° E
Cosmos 1076 Rocket 3.4 19:29:34 10° N 19:33:57 69° ENE 19:38:16 10° SSE
Cosmos 1605 Rocket 4.3 19:28:04 10° NNW 19:34:13 69° W 19:40:15 10° S
Unknown 3.7 19:31:01 10° WNW 19:35:10 68° N 19:37:08 29° E
Cosmos 2058 3.0 19:32:10 10° N 19:36:19 53° ENE 19:40:26 10° SSE
Unknown 3.7 19:32:44 10° WNW 19:36:53 69° N 19:38:47 31° E
Unknown 3.4 19:34:01 10° WNW 19:37:56 85° NNE 19:39:36 33° ESE
Unknown 3.7 19:34:19 10° WNW 19:38:28 69° N 19:40:17 32° E
Cosmos 1300 2.8 19:34:49 10° S 19:38:31 49° E 19:42:14 10° NNE
Unknown 3.7 19:35:56 10° WNW 19:40:04 69° N 19:41:50 33° E
Unknown 3.7 19:37:39 10° WNW 19:41:49 69° N 19:43:30 34° E
Okean 3 Rocket 4.0 19:37:42 10° N 19:42:01 42° ENE 19:44:13 25° SE
Unknown 3.7 19:39:09 10° WNW 19:43:17 69° N 19:44:55 35° E
Cosmos 1763 Rocket 4.5 19:41:31 10° SSE 19:45:07 26° ESE 19:45:07 26° ESE
Unknown 3.7 19:42:27 10° WNW 19:46:36 69° N 19:48:05 37° E
CZ-2D R/B 3.1 19:43:51 10° SSE 19:47:42 82° ENE 19:51:37 10° NNW
ATLAS 3B R/B 3.2 19:42:10 10° S 19:48:00 33° ESE 19:50:13 27° E
Unknown 3.7 19:44:07 10° WNW 19:48:16 70° N 19:49:41 39° E
SL-27 R/B 3.7 19:45:29 10° N 19:47:31 24° NNE 19:47:31 24° NNE
Cosmos 2082 Rocket 2.8 19:44:13 10° NW 19:49:50 59° WSW 19:55:24 10° S
Unknown 3.6 19:46:00 10° WNW 19:50:09 71° N 19:51:29 41° E
Cosmos 1727 Rocket 3.9 19:44:20 10° S 19:50:30 84° E 19:56:43 10° N
Resurs 01 Rocket 3.7 19:52:12 13° NNE 19:52:12 13° NNE 19:53:11 10° NNE
Cosmos 2173 Rocket 3.9 19:44:52 10° N 19:51:08 68° ENE 19:57:15 10° SSE
Unknown 3.6 19:47:29 10° WNW 19:51:38 70° N 19:52:55 42° E
Cosmos 2151 3.3 19:48:35 10° N 19:52:43 41° ENE 19:53:14 40° E
Cosmos 1812 Rocket 3.5 19:48:29 10° S 19:52:57 90° E 19:57:27 10° N
Cosmos 1939 Rocket 2.8 19:49:10 10° SSE 19:53:12 85° ENE 19:57:19 10° NNW
Unknown 3.6 19:49:07 10° WNW 19:53:16 71° N 19:54:29 43° E
IRS-1A Rocket 4.1 19:48:10 10° SSE 19:53:38 68° ENE 19:59:09 10° NNW
CENTAUR R/B 3.0 19:49:15 10° S 19:54:42 37° ESE 19:56:59 29° ENE
Unknown 3.5 19:51:39 10° WNW 19:55:43 79° NNE 19:56:45 49° E
Unknown 3.6 19:52:28 10° WNW 19:56:37 72° N 19:57:42 47° ENE
SPOT 3 Rocket 4.1 19:55:58 34° E 19:56:56 37° ENE 20:01:42 10° N
Unknown 3.6 19:54:05 10° WNW 19:58:15 72° N 19:59:15 49° ENE
Unknown 3.6 19:55:47 10° WNW 19:59:56 73° N 20:00:52 51° ENE
BREEZE-M DEB (TANK) 3.3 19:56:51 10° SW 19:59:43 31° S 19:59:43 31° S
SKYMED 2 4.5 19:56:43 10° N 20:00:57 50° WNW 20:05:09 10° SW
Unknown 3.6 19:57:27 10° WNW 20:01:38 73° NNE 20:02:29 53° ENE
Cosmos 1802 Rocket 4.0 19:56:10 10° N 20:02:38 69° ENE 20:08:59 10° SSE
YAOGAN 1 3.7 19:59:13 10° S 20:03:21 44° W 20:07:31 10° NNW
Unknown 3.6 20:00:50 10° WNW 20:04:59 75° NNE 20:05:42 57° ENE
Unknown 3.5 20:01:18 10° WNW 20:05:24 78° NNE 20:06:04 60° E
Unknown 3.6 20:01:48 10° WNW 20:05:57 76° N 20:06:38 59° ENE
Unknown 3.5 20:02:33 10° WNW 20:06:44 78° NNE 20:07:23 61° E
Cosmos 2123 Rocket 4.3 20:01:39 10° SSE 20:07:27 41° E 20:13:15 10° NNE
Cosmos 44 3.3 20:02:59 10° SSW 20:07:45 54° SE 20:08:22 49° E
Unknown 3.5 20:04:21 10° WNW 20:08:30 78° NNE 20:09:06 63° E
Cosmos 1898 Rocket 3.5 20:05:47 10° NNW 20:11:05 84° WSW 20:14:40 21° SSE
Unknown 3.5 20:07:29 10° WNW 20:11:39 77° NNE 20:12:06 67° ENE
Cosmos 2233 Rocket 4.4 20:06:18 10° N 20:12:10 39° ENE 20:12:49 38° E
H-2A R/B 2.5 20:11:49 42° E 20:12:20 43° ENE 20:17:28 10° N
In-Cosmos 22 Rocket 4.1 20:06:58 10° NNW 20:12:24 86° W 20:17:57 10° S
Unknown 4.0 20:08:54 10° WNW 20:12:30 47° SSW 20:12:58 44° S
Cosmos 1000 Rocket 4.4 20:08:06 10° S 20:14:16 72° E 20:20:31 10° NNE
Cosmos 1725 Rocket 4.0 20:08:24 10° N 20:14:37 58° ENE 20:17:32 32° SE
Unknown 3.5 20:10:48 10° WNW 20:14:58 79° NNE 20:15:17 72° ENE
Unknown 3.5 20:12:26 10° WNW 20:16:36 80° NNE 20:16:51 75° ENE
ATLAS 5 CENTAUR R/B 3.7 20:13:53 10° WNW 20:17:41 23° N 20:20:26 16° NNE
Unknown 3.5 20:14:07 10° WNW 20:18:17 80° NNE 20:18:28 77° NE
Meteor 2-1 Rocket 4.0 20:13:06 10° S 20:18:38 79° E 20:24:16 10° NNE
Unknown 3.5 20:15:45 10° WNW 20:19:55 81° NNE 20:20:02 79° NE
Cosmos 2100 Rocket 4.1 20:14:02 10° NNW 20:20:13 74° W 20:26:20 10° S
USA 238 DEB 3.7 20:17:34 10° SW 20:24:19 81° NW 20:29:24 20° NE
USA 238 3.7 20:17:40 10° SW 20:24:26 81° NW 20:29:28 20° NE
CZ-4 R/B 4.1 20:23:20 10° SW 20:26:33 21° W 20:29:49 10° NW
Unknown 3.6 20:22:26 10° WNW 20:26:27 81° NW 20:26:27 81° NW
Unknown 3.6 20:24:07 10° WNW 20:28:04 79° NW 20:28:04 79° NW
Abrixas rocket 4.0 20:25:23 10° WSW 20:27:03 27° WSW 20:27:03 27° WSW
Unknown 3.6 20:25:46 10° WNW 20:29:39 77° WNW 20:29:39 77° WNW
Unknown 3.7 20:27:24 10° WNW 20:31:13 74° WNW 20:31:13 74° WNW
Cosmos 2278 Rocket 3.4 20:27:47 10° WSW 20:33:08 40° NW 20:38:30 10° NNE
Unknown 3.8 20:29:03 10° WNW 20:32:48 72° WNW 20:32:48 72° WNW
ATLAS CENTAUR R/B 2.7 20:29:41 10° NNW 20:33:06 32° N 20:33:06 32° N
Cosmos 2016 Rocket 4.0 20:29:52 10° N 20:36:12 85° W 20:41:17 17° S
Unknown 3.9 20:32:23 10° WNW 20:36:01 67° WNW 20:36:01 67° WNW
Cosmos 2297 3.6 20:32:10 10° SSW 20:37:53 88° WNW 20:41:31 24° NNE
Starlink (trailer) 3.9 20:34:02 10° WNW 20:37:35 64° WNW 20:37:35 64° WNW
Unknown 4.0 20:35:45 10° WNW 20:39:13 61° WNW 20:39:13 61° WNW
SJ-6B 4.5 20:42:08 25° N 20:42:08 25° N 20:43:48 10° NNW
SJ 16-02 1.6 20:36:23 10° NNW 20:40:44 63° WSW 20:41:02 61° SW
Unknown 4.1 20:37:23 10° WNW 20:40:49 59° WNW 20:40:49 59° WNW
SL-08 R/B 4.4 20:38:54 10° N 20:45:03 86° W 20:47:42 36° S
Ariane Rocket 4.1 20:40:55 10° S 20:45:44 43° W 20:50:37 10° NNW
ARGOS 3.1 20:46:31 70° NE 20:46:31 70° NE 20:51:43 10° NNW
Unknown 4.3 20:42:24 10° WNW 20:45:38 52° W 20:45:38 52° W
NOSS 3-2 (A) 3.6 20:40:50 10° SW 20:46:47 71° NW 20:50:14 30° NE
Unknown 4.4 20:44:02 10° WNW 20:47:11 50° W 20:47:11 50° W
Unknown 4.5 20:45:45 10° WNW 20:48:50 48° W 20:48:50 48° W
Cosmos 468 Rocket 4.0 20:45:44 10° SSW 20:51:01 80° WNW 20:52:10 55° N
Cosmos 1892 4.1 20:49:31 10° NNW 20:52:12 36° NW 20:52:12 36° NW
Cosmos 2150 Rocket 4.2 20:52:55 10° NNW 20:57:43 68° N 20:57:43 68° N
ADEOS Rocket 3.3 20:52:52 10° NNE 21:00:34 71° ESE 21:03:34 39° S
Cosmos 1937 Rocket 4.3 20:56:07 10° NW 21:01:01 46° WSW 21:02:14 38° SW
CZ-2C R/B 3.6 21:13:11 59° N 21:13:11 59° N 21:17:48 10° NNW
NOSS 3-2 (C) 3.6 21:07:17 10° SW 21:13:15 71° NW 21:14:29 57° NNE
Cosmos 1238 Rocket 4.0 21:08:06 10° N 21:14:03 71° N 21:14:03 71° N
Meteor 2-3 Rocket 4.2 21:11:19 10° NNW 21:15:45 54° N 21:15:45 54° N
Resurs 01 Rocket 3.9 21:29:47 19° NNW 21:29:47 19° NNW 21:31:01 10° NNW
Cosmos 2227 Rocket 4.2 21:26:24 10° NNW 21:28:51 18° NNE 21:28:51 18° NNE
Cosmos 2297 Rocket 4.2 21:30:56 10° NNW 21:33:19 18° N 21:33:19 18° N
ATLAS 3B R/B 2.8 21:31:34 10° SW 21:37:31 65° W 21:37:31 65° W
CENTAUR R/B 3.0 21:38:45 10° WSW 21:44:14 61° WNW 21:44:14 61° WNW
H-2A R/B 3.6 21:52:28 34° W 21:52:28 34° W 21:56:49 10° NNW
ATLAS 5 CENTAUR R/B 4.2 21:59:43 10° NW 22:01:57 20° NNW 22:01:57 20° NNW
